BEIDOU-3 M5

Last updated on May 15, 2019, 3:07 a.m. UTC

1 43207U 18018A   19133.87293391  .00000094  00000-0  00000+0 0  9995
2 43207  55.0588 149.8119 0008896 313.7825  46.1918  1.86231852  8487
UTC
Height (km)
Latitude
Longitude
Inclination
Orbital Period
UTC large
Height (km)
Speed (km/s)
/
Latitude / Longitude
Inclination (degrees)
Orbital Period (minutes)
Azimuth
Elevation
Range (km)
Doppler Factor
iOS Compass Heading
iOS Angle

Next 30 passes for location: Hong Kong

Rise time Rise Azimuth (degrees) Set time Set Azimuth (degrees) Duration Max altitude (degrees)

No matching passes for this satellites